This is the latest recevied weather packets stored in our database for station/object KC3LDA. If no packets are shown the sender has not sent any weather packets the latest 10 day(s).
| Time | Temp. | Humidity | Pressure | Rain* | Wind** | Luminosity | Snow |
|---|---|---|---|---|---|---|---|
| 1777653390 | 15° C | 43% | 1009.2 hPa | 0 mm | - | 878 W/m² | - |
| 1777653087 | 15.56° C | 42% | 1009.3 hPa | 0 mm | - | 878 W/m² | - |
| 1777652783 | 15° C | 42% | 1009.4 hPa | 0 mm | - | 876 W/m² | - |
| 1777652480 | 15.56° C | 41% | 1009.3 hPa | 0 mm | - | 873 W/m² | - |
| 1777652178 | 15° C | 41% | 1009.6 hPa | 0 mm | - | 872 W/m² | - |
| 1777651874 | 15.56° C | 42% | 1009.6 hPa | 0 mm | - | 867 W/m² | - |
| 1777651571 | 15° C | 42% | 1009.7 hPa | 0 mm | - | 865 W/m² | - |
| 1777651268 | 14.44° C | 44% | 1009.7 hPa | 0 mm | - | 860 W/m² | - |
| 1777650965 | 15° C | 46% | 1009.6 hPa | 0 mm | - | 855 W/m² | - |
| 1777650662 | 14.44° C | 46% | 1009.9 hPa | 0 mm | - | 847 W/m² | - |
| 1777650359 | 14.44° C | 44% | 1009.8 hPa | 0 mm | - | 845 W/m² | - |
| 1777650056 | 14.44° C | 45% | 1009.8 hPa | 0 mm | - | 836 W/m² | - |
| 1777649753 | 14.44° C | 44% | 1009.9 hPa | 0 mm | - | 828 W/m² | - |
| 1777649450 | 13.89° C | 46% | 1009.7 hPa | 0 mm | - | 821 W/m² | - |
| 1777649147 | 15° C | 46% | 1010.1 hPa | 0 mm | - | 811 W/m² | - |
| 1777648844 | 14.44° C | 45% | 1010.1 hPa | 0 mm | - | 801 W/m² | - |
| 1777648541 | 13.33° C | 47% | 1009.7 hPa | 0 mm | - | 793 W/m² | - |
| 1777648238 | 13.89° C | 45% | 1009.8 hPa | 0 mm | - | 785 W/m² | - |
| 1777647933 | 13.89° C | 48% | 1009.9 hPa | 0 mm | - | 776 W/m² | - |
| 1777647630 | 13.89° C | 46% | 1009.9 hPa | 0 mm | - | 769 W/m² | - |
| 1777647326 | 13.89° C | 48% | 1009.6 hPa | 0 mm | - | 756 W/m² | - |
| 1777647024 | 13.89° C | 48% | 1009.6 hPa | 0 mm | - | 747 W/m² | - |
| 1777646720 | 13.89° C | 47% | 1009.7 hPa | 0 mm | - | 738 W/m² | - |
| 1777646415 | 13.33° C | 48% | 1009.7 hPa | 0 mm | - | 727 W/m² | - |
| 1777646112 | 13.33° C | 49% | 1009.7 hPa | 0 mm | - | 715 W/m² | - |
* Rain latest hour (hover to see other rain measurements)
** Current wind speed in m/s (hover to see current wind gust speed)